Location: *
(39.7561°N, 99.6687°W)
Time: 17:34:18
(UTC+00:00)

Daily predictions for brighter satellites

Satellite Brightness Start Highest point End
(mag) Time Altitude Azimuth Time Altitude Azimuth Time Altitude Azimuth
Cosmos 1151 Rocket 3.4 12:02:29 10° S 12:06:47 68° E 12:11:04 10° NNE
CZ-4B R/B 1.1 12:04:25 10° S 12:07:34 75° WSW 12:10:41 10° NNW
SJ-12 4.1 12:04:57 10° N 12:08:53 49° WNW 12:12:47 10° SSW
CENTAUR R/B 3.6 12:04:43 10° NNW 12:13:00 72° NE 12:21:55 10° SE
GENESIS II 4.5 12:10:43 11° SW 12:14:23 49° NW 12:18:16 10° NNE
Cosmos 1933 3.4 12:11:45 10° SSW 12:15:40 55° W 12:19:39 10° N
Cosmos 2333 4.2 12:10:39 10° NNW 12:16:27 83° WSW 12:22:14 10° SSE
NOSS 3-4 (A) 3.7 12:11:17 10° SSW 12:17:02 69° ESE 12:23:08 10° NE
Cosmos 2251 Rocket 3.9 12:12:06 10° SW 12:17:08 42° WNW 12:22:13 10° N
NOSS 3-4 (C) 3.7 12:11:23 10° SSW 12:17:08 69° ESE 12:23:12 10° NE
YAOGAN 6 2.7 12:15:45 10° NNE 12:19:16 74° E 12:22:44 10° S
Meteor 1-26 Rocket 4.3 12:16:00 10° S 12:21:36 89° E 12:27:26 10° N
Cosmos 2360 Rocket 2.7 12:17:59 10° NW 12:23:11 38° WSW 12:28:21 10° S
NOSS 3-2 (C) 4.4 12:15:30 10° NNW 12:23:13 75° NE 12:31:51 10° SE
Cosmos 2237 Rocket 4.4 12:20:37 10° N 12:25:22 26° NE 12:30:05 10° ESE
Cosmos 1689 Rocket 3.0 12:23:29 10° SSE 12:26:12 49° ENE 12:28:57 10° N
COSMOS 2487 3.5 12:24:35 10° WSW 12:27:25 24° WNW 12:30:17 10° N
CZ-4B R/B 3.3 12:24:58 10° N 12:29:21 54° WNW 12:33:44 10° SSW
Cosmos 1328 Rocket 3.4 12:26:49 10° S 12:31:07 77° W 12:35:26 10° N
ATLAS 2AS CENTAUR R/B 3.6 12:24:11 10° SSW 12:31:56 64° ESE 12:39:42 10° NE
Cosmos 2333 Rocket 2.2 12:26:41 10° NNW 12:32:28 77° WSW 12:38:12 10° SSE
COSMO-SKYMED 1 3.1 12:29:05 10° SSW 12:33:03 35° W 12:37:04 10° NNW
BREEZE-M DEB (TANK) 4.5 12:32:45 10° WNW 12:35:18 16° NNW 12:37:03 10° NNE
SeaSat 1 3.4 12:32:58 10° SSW 12:37:03 26° WSW 12:41:09 10° NW
CZ-2C R/B 3.5 12:31:46 10° SSE 12:37:14 58° ENE 12:42:45 10° N
Cosmos 1470 Rocket 3.9 12:33:43 10° N 12:38:05 70° E 12:42:23 10° SSE
Cosmos 2227 Rocket 4.4 12:36:41 10° SSE 12:41:38 32° ESE 12:46:36 10° NE
